Regional Weather Roundup
Issued by NWS Midland/Odessa, TX

Skip options and go directly to product.
Home | Oldest Version | Previous Version | Current Version | All | Text Only | Save Text | Print | Product List | Glossary Off

Skip product version selection by date and time.   

754
ASUS44 KMAF 280201
RWRMAF
MIDLAND AREA WEATHER ROUNDUP
NATIONAL WEATHER SERVICE MIDLAND TX
900 PM CDT MON JUN 27 2016

...IN SOUTHWEST TEXAS AND SOUTHEAST NEW MEXICO...

CITY           SKY/WX    TMP DP  RH WIND       PRES   REMARKS
ALPINE         CLOUDY    69  63  82 S8        30.27R
ANDREWS        FAIR      77  59  53 SE7       30.18S
ARTESIA        CLEAR     79  66  65 S13       30.17R
BIG SPRING     MOCLDY    78  58  51 E6        30.17S
CARLSBAD       NOT AVBL
DRYDEN           N/A     79  72  79 NE5       30.07R
FORT STOCKTON  CLEAR     76  67  73 SE12      30.14R
GUAD PASS      CLOUDY    67  62  84 NE28G36   30.26R
HOBBS          MOCLDY    73  63  68 SE10      30.20S
MARFA          CLOUDY   N/A N/A N/A SE7         N/A
MIDLAND AIRPK  CLEAR     81  60  48 SE9       30.16R
MIDLAND INTL   CLEAR     78  62  57 SE9       30.16R
ODESSA         CLEAR     78  62  57 S7        30.17R
PECOS          CLEAR     77  68  74 E10       30.12R
PRESIDIO       NOT AVBL
SEMINOLE       CLEAR     77  60  55 SE9       30.20R
SNYDER           N/A     79  57  45 S6        30.16S
WINK           PTCLDY    76  66  71 SE9       30.13R
$$
...OTHER STATIONS IN TEXAS...

CITY           SKY/WX    TMP DP  RH WIND       PRES   REMARKS
ABILENE        CLEAR     87  65  47 SE3       30.11R
AMARILLO       CLEAR     81  59  47 S10       30.21R
AUSTIN         PTCLDY    82  73  74 SW3       30.02R
BROWNSVILLE    CLEAR     83  76  79 SE7       29.98R
CORPUS CHRISTI PTCLDY    82  74  76 SE8       29.99R
DALLAS FTW     CLOUDY    85  68  56 SW6       30.06S
DEL RIO        CLEAR     86  67  52 E8        30.00R
EL PASO        MOCLDY    85  58  39 SE18G25   30.11R
HOUSTON INT    CLOUDY    83  75  77 CALM      30.01R
LUBBOCK        PTCLDY    81  57  43 SE12      30.18R
SAN ANGELO     CLEAR     81  72  74 NE5       30.09S
SAN ANTONIO    PTCLDY    85  66  53 E6        30.04R
WACO           PTCLDY    84  67  56 E5        30.03S
WICHITA FALLS  NOT AVBL
$$
...OTHER LOCATIONS IN NEW MEXICO...

CITY           SKY/WX    TMP DP  RH WIND       PRES   REMARKS
ALAMAGORDO     PTCLDY    86  50  28 E9        30.13R
ALBUQUERQUE    CLOUDY    85  45  24 E9        30.25R
CANNON AFB     CLEAR     77  60  55 SE10      30.24R
CLOVIS         CLEAR     75  57  53 SE12      30.24S
HOLLOMAN AFB   PTCLDY    88  51  28 NE13      30.10R
ROSWELL        CLEAR     82  59  45 S14       30.17R
RUIDOSO          N/A     72  50  46 E12G17    30.39S
SANTA FE       CLOUDY    69  51  52 N16G26    30.37S
TRUTH OR CONSE CLOUDY    87  48  25 SE7       30.16R
TUCUMCARI      CLEAR     82  56  40 S7        30.19R
$$

USA.gov is the U.S. government's official web portal to all federal, state and local government web resources and services.